| time (UTC) | temp F | wind direction | speed knots | gust knots | rain 1hr in | rain 24hr in | rain mn in | humidity % | barometer mb |
| 20260507051618 | 57 | 214 | 0.9 | 1.7 | 0.00 | 0.00 | 0.00 | 91 | 1020.2 |
| 20260507051115 | 57 | 274 | 0.9 | 0.9 | 0.00 | 0.00 | 0.00 | 91 | 1020.3 |
| 20260507050611 | 57 | 294 | 1.7 | 1.7 | 0.00 | 0.00 | 0.00 | 90 | 1020.4 |
| 20260507050108 | 57 | 216 | 0.0 | 0.9 | 0.00 | 0.00 | 0.00 | 90 | 1020.2 |
| 20260507045605 | 57 | 217 | 0.0 | 0.9 | 0.00 | 0.00 | 0.00 | 90 | 1020.2 |
| 20260507045102 | 57 | 219 | 0.0 | 0.9 | 0.00 | 0.00 | 0.00 | 90 | 1020.0 |
| 20260507044558 | 57 | 219 | 0.0 | 0.9 | 0.00 | 0.00 | 0.00 | 90 | 1020.3 |
| 20260507044056 | 57 | 204 | 0.0 | 0.0 | 0.00 | 0.00 | 0.00 | 90 | 1020.4 |
| 20260507043551 | 57 | 184 | 0.9 | 0.9 | 0.00 | 0.00 | 0.00 | 89 | 1020.2 |
| 20260507043049 | 58 | 219 | 0.9 | 0.9 | 0.00 | 0.00 | 0.00 | 89 | 1020.2 |
| 20260507042544 | 57 | 212 | 0.0 | 0.9 | 0.00 | 0.00 | 0.00 | 89 | 1020.1 |
| 20260507042040 | 57 | 199 | 0.0 | 0.9 | 0.00 | 0.00 | 0.00 | 88 | 1020.1 |
| 20260507041537 | 58 | 201 | 0.0 | 0.9 | 0.00 | 0.00 | 0.00 | 88 | 1020.0 |
| 20260507041034 | 58 | 209 | 0.0 | 0.9 | 0.00 | 0.00 | 0.00 | 88 | 1020.1 |
| 20260507040531 | 58 | 236 | 0.9 | 0.9 | 0.00 | 0.00 | 0.00 | 88 | 1019.9 |
| 20260507040026 | 58 | 211 | 0.9 | 1.7 | 0.00 | 0.00 | 0.00 | 87 | 1020.0 |
| 20260507035523 | 59 | 210 | 0.9 | 0.9 | 0.00 | 0.00 | 0.00 | 87 | 1019.8 |
| 20260507035020 | 59 | 211 | 0.9 | 0.9 | 0.00 | 0.00 | 0.00 | 86 | 1019.8 |
| 20260507034517 | 59 | 210 | 0.9 | 0.9 | 0.00 | 0.00 | 0.00 | 87 | 1019.7 |
| 20260507034015 | 58 | 202 | 0.0 | 0.0 | 0.00 | 0.00 | 0.00 | 87 | 1019.6 |
| 20260507033512 | 58 | 208 | 0.0 | 0.0 | 0.00 | 0.00 | 0.00 | 87 | 1019.6 |
| 20260507033009 | 58 | 204 | 0.0 | 0.0 | 0.00 | 0.00 | 0.00 | 87 | 1019.5 |
| 20260507032506 | 59 | 205 | 0.0 | 0.0 | 0.00 | 0.00 | 0.00 | 87 | 1019.3 |
| 20260507032002 | 59 | 202 | 0.0 | 0.0 | 0.00 | 0.00 | 0.00 | 87 | 1019.4 |
| 20260507031458 | 59 | 205 | 0.0 | 0.0 | 0.00 | 0.00 | 0.00 | 86 | 1019.3 |
| 20260507030955 | 59 | 208 | 0.0 | 0.0 | 0.00 | 0.00 | 0.00 | 86 | 1019.3 |
| 20260507030452 | 59 | 208 | 0.0 | 0.0 | 0.00 | 0.00 | 0.00 | 85 | 1019.3 |
| 20260507025950 | 59 | 210 | 0.0 | 0.9 | 0.00 | 0.00 | 0.00 | 85 | 1019.1 |
| 20260507025447 | 60 | 207 | 0.0 | 0.9 | 0.00 | 0.00 | 0.00 | 84 | 1019.2 |
| 20260507024945 | 60 | 217 | 0.9 | 1.7 | 0.00 | 0.00 | 0.00 | 83 | 1019.1 |
| 20260507024442 | 60 | 212 | 0.9 | 1.7 | 0.00 | 0.00 | 0.00 | 82 | 1019.2 |
| 20260507023937 | 60 | 213 | 0.9 | 1.7 | 0.00 | 0.00 | 0.00 | 80 | 1019.1 |
| 20260507023435 | 60 | 211 | 0.0 | 1.7 | 0.00 | 0.00 | 0.00 | 78 | 1019.0 |
| 20260507022931 | 60 | 212 | 0.9 | 0.9 | 0.00 | 0.00 | 0.00 | 77 | 1019.0 |
| 20260507022429 | 60 | 206 | 0.9 | 1.7 | 0.00 | 0.00 | 0.00 | 77 | 1018.9 |
| 20260507021924 | 61 | 230 | 1.7 | 1.7 | 0.00 | 0.00 | 0.00 | 78 | 1018.9 |
| 20260507021420 | 61 | 202 | 0.9 | 2.6 | 0.00 | 0.00 | 0.00 | 78 | 1018.9 |
| 20260507020918 | 61 | 205 | 0.9 | 2.6 | 0.00 | 0.00 | 0.00 | 79 | 1019.0 |
| 20260507020414 | 61 | 196 | 2.6 | 2.6 | 0.00 | 0.00 | 0.00 | 79 | 1018.7 |
| 20260507015911 | 62 | 183 | 0.0 | 3.5 | 0.00 | 0.00 | 0.00 | 80 | 1019.1 |
| 20260507015409 | 62 | 220 | 2.6 | 3.5 | 0.00 | 0.00 | 0.00 | 78 | 1018.8 |
| 20260507014906 | 63 | 225 | 2.6 | 5.2 | 0.00 | 0.00 | 0.00 | 77 | 1018.8 |
| 20260507014402 | 63 | 217 | 1.7 | 5.2 | 0.00 | 0.00 | 0.00 | 75 | 1019.0 |
| 20260507013859 | 64 | 215 | 2.6 | 2.6 | 0.00 | 0.00 | 0.00 | 74 | 1018.8 |
| 20260507013356 | 64 | 248 | 2.6 | 3.5 | 0.00 | 0.00 | 0.00 | 73 | 1018.8 |
| 20260507012853 | 64 | 201 | 1.7 | 5.2 | 0.00 | 0.00 | 0.00 | 71 | 1018.7 |
| 20260507012350 | 65 | 210 | 1.7 | 2.6 | 0.00 | 0.00 | 0.00 | 70 | 1018.8 |
| 20260507011847 | 65 | 202 | 2.6 | 3.5 | 0.00 | 0.00 | 0.00 | 70 | 1018.9 |
| 20260507011344 | 66 | 243 | 1.7 | 5.2 | 0.00 | 0.00 | 0.00 | 69 | 1018.8 |
| 20260507010843 | 66 | 209 | 1.7 | 3.5 | 0.00 | 0.00 | 0.00 | 69 | 1018.7 |
| 20260507010339 | 66 | 215 | 4.3 | 6.1 | 0.00 | 0.00 | 0.00 | 68 | 1018.9 |
| 20260507005836 | 66 | 234 | 0.9 | 6.1 | 0.00 | 0.00 | 0.00 | 67 | 1019.0 |
| 20260507005333 | 66 | 225 | 1.7 | 5.2 | 0.00 | 0.00 | 0.00 | 68 | 1018.9 |
| 20260507004830 | 66 | 226 | 3.5 | 6.1 | 0.00 | 0.00 | 0.00 | 68 | 1018.8 |
| 20260507004327 | 66 | 265 | 1.7 | 7.0 | 0.00 | 0.00 | 0.00 | 68 | 1019.0 |
| 20260507003824 | 66 | 209 | 2.6 | 6.1 | 0.00 | 0.00 | 0.00 | 67 | 1019.1 |
| 20260507003319 | 66 | 201 | 2.6 | 5.2 | 0.00 | 0.00 | 0.00 | 68 | 1019.0 |
| 20260507002815 | 66 | 215 | 3.5 | 6.1 | 0.00 | 0.00 | 0.00 | 66 | 1018.9 |
| 20260507002311 | 66 | 222 | 2.6 | 3.5 | 0.00 | 0.00 | 0.00 | 65 | 1018.9 |
| 20260507001809 | 66 | 238 | 0.9 | 5.2 | 0.00 | 0.00 | 0.00 | 64 | 1019.1 |
| 20260507001306 | 66 | 207 | 3.5 | 7.0 | 0.00 | 0.00 | 0.00 | 63 | 1019.1 |
| 20260507000802 | 66 | 218 | 1.7 | 8.7 | 0.00 | 0.00 | 0.00 | 64 | 1019.1 |
| 20260507000259 | 66 | 218 | 4.3 | 6.1 | 0.00 | 0.00 | 0.00 | 63 | 1018.9 |
| 20260506235754 | 66 | 182 | 2.6 | 6.1 | 0.00 | 0.00 | 0.00 | 62 | 1019.0 |
| 20260506235250 | 67 | 179 | 3.5 | 6.1 | 0.00 | 0.00 | 0.00 | 62 | 1018.9 |
| 20260506234747 | 66 | 217 | 3.5 | 6.1 | 0.00 | 0.00 | 0.00 | 63 | 1019.2 |
| 20260506234244 | 66 | 218 | 2.6 | 6.1 | 0.00 | 0.00 | 0.00 | 62 | 1019.0 |
| 20260506233742 | 67 | 211 | 3.5 | 7.0 | 0.00 | 0.00 | 0.00 | 62 | 1019.1 |
| 20260506233238 | 67 | 216 | 2.6 | 11.3 | 0.00 | 0.00 | 0.00 | 63 | 1019.0 |
| 20260506232735 | 67 | 156 | 2.6 | 7.8 | 0.00 | 0.00 | 0.00 | 61 | 1019.1 |
| 20260506232230 | 67 | 246 | 3.5 | 7.0 | 0.00 | 0.00 | 0.00 | 61 | 1019.0 |
| 20260506231727 | 67 | 216 | 5.2 | 7.8 | 0.00 | 0.00 | 0.00 | 63 | 1019.1 |
| 20260506231226 | 68 | 232 | 2.6 | 3.5 | 0.00 | 0.00 | 0.00 | 62 | 1019.0 |
| 20260506230722 | 67 | 269 | 4.3 | 6.1 | 0.00 | 0.00 | 0.00 | 63 | 1019.2 |
| 20260506230219 | 67 | 284 | 3.5 | 6.1 | 0.00 | 0.00 | 0.00 | 63 | 1019.2 |
| 20260506225715 | 68 | 172 | 2.6 | 7.8 | 0.00 | 0.00 | 0.00 | 63 | 1019.2 |
| 20260506225212 | 68 | 187 | 3.5 | 6.1 | 0.00 | 0.00 | 0.00 | 62 | 1019.4 |
| 20260506224709 | 68 | 225 | 1.7 | 7.0 | 0.00 | 0.00 | 0.00 | 63 | 1019.6 |
| 20260506224206 | 67 | 211 | 3.5 | 7.8 | 0.00 | 0.00 | 0.00 | 64 | 1019.7 |
| 20260506223702 | 68 | 276 | 4.3 | 5.2 | 0.00 | 0.00 | 0.00 | 63 | 1019.6 |
| 20260506223158 | 68 | 200 | 2.6 | 6.1 | 0.00 | 0.00 | 0.00 | 64 | 1019.7 |
| 20260506222655 | 68 | 253 | 3.5 | 7.0 | 0.00 | 0.00 | 0.00 | 62 | 1019.9 |
| 20260506222151 | 66 | 198 | 0.9 | 6.1 | 0.00 | 0.00 | 0.00 | 66 | 1019.9 |
| 20260506221649 | 66 | 110 | 3.5 | 7.0 | 0.00 | 0.00 | 0.00 | 67 | 1020.0 |
| 20260506221147 | 67 | 359 | 1.7 | 5.2 | 0.00 | 0.00 | 0.00 | 65 | 1020.0 |
| 20260506220643 | 67 | 184 | 3.5 | 7.8 | 0.00 | 0.00 | 0.00 | 66 | 1020.2 |
| 20260506220138 | 67 | 192 | 1.7 | 6.1 | 0.00 | 0.00 | 0.00 | 64 | 1020.1 |
| 20260506215635 | 68 | 92 | 2.6 | 9.6 | 0.00 | 0.00 | 0.00 | 64 | 1020.3 |
| 20260506215130 | 68 | 245 | 4.3 | 6.1 | 0.00 | 0.00 | 0.00 | 64 | 1020.3 |
| 20260506214628 | 68 | 217 | 1.7 | 6.1 | 0.00 | 0.00 | 0.00 | 64 | 1020.5 |
| 20260506214125 | 67 | 71 | 3.5 | 7.0 | 0.00 | 0.00 | 0.00 | 65 | 1020.4 |
| 20260506213623 | 67 | 245 | 4.3 | 7.8 | 0.00 | 0.00 | 0.00 | 66 | 1020.4 |
| 20260506213120 | 68 | 245 | 3.5 | 5.2 | 0.00 | 0.00 | 0.00 | 64 | 1020.6 |
| 20260506212618 | 67 | 239 | 2.6 | 5.2 | 0.00 | 0.00 | 0.00 | 66 | 1020.6 |
| 20260506212112 | 67 | 197 | 3.5 | 6.1 | 0.00 | 0.00 | 0.00 | 66 | 1020.6 |
| 20260506211608 | 68 | 303 | 2.6 | 5.2 | 0.00 | 0.00 | 0.00 | 64 | 1020.6 |
| 20260506211105 | 67 | 225 | 2.6 | 3.5 | 0.00 | 0.00 | 0.00 | 64 | 1020.6 |
| 20260506210602 | 68 | 217 | 0.9 | 6.1 | 0.00 | 0.00 | 0.00 | 64 | 1020.7 |
| 20260506210058 | 68 | 199 | 1.7 | 3.5 | 0.00 | 0.00 | 0.00 | 65 | 1020.8 |
| 20260506205555 | 67 | 243 | 3.5 | 6.1 | 0.00 | 0.00 | 0.00 | 65 | 1020.8 |
| 20260506205050 | 67 | 210 | 3.5 | 7.8 | 0.00 | 0.00 | 0.00 | 65 | 1020.8 |
| 20260506204549 | 68 | 204 | 3.5 | 7.0 | 0.00 | 0.00 | 0.00 | 62 | 1020.8 |
| 20260506204045 | 67 | 177 | 1.7 | 5.2 | 0.00 | 0.00 | 0.00 | 61 | 1020.9 |
| 20260506203544 | 68 | 199 | 4.3 | 5.2 | 0.00 | 0.00 | 0.00 | 64 | 1021.0 |
| 20260506203040 | 68 | 199 | 5.2 | 6.1 | 0.00 | 0.00 | 0.00 | 61 | 1021.0 |
| 20260506202537 | 68 | 212 | 1.7 | 5.2 | 0.00 | 0.00 | 0.00 | 62 | 1021.0 |
| 20260506202033 | 68 | 180 | 3.5 | 6.1 | 0.00 | 0.00 | 0.00 | 63 | 1020.8 |
| 20260506201532 | 67 | 195 | 3.5 | 7.8 | 0.00 | 0.00 | 0.00 | 63 | 1021.0 |
| 20260506201028 | 67 | 211 | 3.5 | 7.0 | 0.00 | 0.00 | 0.00 | 64 | 1021.3 |
| 20260506200524 | 67 | 220 | 0.9 | 3.5 | 0.00 | 0.00 | 0.00 | 63 | 1021.3 |
| 20260506200021 | 67 | 225 | 3.5 | 6.1 | 0.00 | 0.00 | 0.00 | 61 | 1021.0 |
| 20260506195518 | 68 | 222 | 1.7 | 5.2 | 0.00 | 0.00 | 0.00 | 62 | 1021.0 |
| 20260506195014 | 68 | 230 | 1.7 | 5.2 | 0.00 | 0.00 | 0.00 | 63 | 1021.5 |
| 20260506194512 | 68 | 281 | 4.3 | 6.1 | 0.00 | 0.00 | 0.00 | 62 | 1021.4 |
| 20260506194008 | 67 | 218 | 1.7 | 7.0 | 0.00 | 0.00 | 0.00 | 64 | 1021.4 |
| 20260506193506 | 68 | 191 | 3.5 | 7.0 | 0.00 | 0.00 | 0.00 | 62 | 1021.5 |
| 20260506193002 | 68 | 129 | 2.6 | 6.1 | 0.00 | 0.00 | 0.00 | 64 | 1021.5 |
| 20260506192459 | 67 | 142 | 3.5 | 5.2 | 0.00 | 0.00 | 0.00 | 65 | 1021.4 |
| 20260506191955 | 66 | 197 | 5.2 | 7.0 | 0.00 | 0.00 | 0.00 | 67 | 1021.3 |
| 20260506191452 | 66 | 174 | 3.5 | 7.0 | 0.00 | 0.00 | 0.00 | 67 | 1021.4 |
| 20260506190948 | 67 | 274 | 1.7 | 5.2 | 0.00 | 0.00 | 0.00 | 65 | 1021.5 |
| 20260506190446 | 67 | 229 | 3.5 | 3.5 | 0.00 | 0.00 | 0.00 | 66 | 1021.3 |
| 20260506185942 | 66 | 250 | 3.5 | 7.0 | 0.00 | 0.00 | 0.00 | 68 | 1021.5 |
| 20260506185439 | 67 | 213 | 3.5 | 6.1 | 0.00 | 0.00 | 0.00 | 67 | 1021.6 |
| 20260506184936 | 66 | 219 | 3.5 | 6.1 | 0.00 | 0.00 | 0.00 | 68 | 1021.5 |
| 20260506184433 | 66 | 183 | 2.6 | 5.2 | 0.00 | 0.00 | 0.00 | 68 | 1021.8 |
| 20260506183930 | 66 | 190 | 2.6 | 3.5 | 0.00 | 0.00 | 0.00 | 68 | 1021.6 |
| 20260506183425 | 66 | 211 | 3.5 | 6.1 | 0.00 | 0.00 | 0.00 | 68 | 1021.5 |
| 20260506182923 | 66 | 218 | 1.7 | 3.5 | 0.00 | 0.00 | 0.00 | 69 | 1021.6 |
| 20260506182420 | 66 | 206 | 0.9 | 5.2 | 0.00 | 0.00 | 0.00 | 69 | 1021.6 |
| 20260506181918 | 66 | 211 | 4.3 | 6.1 | 0.00 | 0.00 | 0.00 | 68 | 1021.8 |
| 20260506181415 | 67 | 234 | 3.5 | 6.1 | 0.00 | 0.00 | 0.00 | 68 | 1021.7 |
| 20260506180912 | 67 | 208 | 3.5 | 6.1 | 0.00 | 0.00 | 0.00 | 67 | 1021.7 |
| 20260506180408 | 66 | 232 | 3.5 | 5.2 | 0.00 | 0.00 | 0.00 | 68 | 1021.7 |
| 20260506175905 | 68 | 210 | 5.2 | 7.0 | 0.00 | 0.00 | 0.00 | 65 | 1021.7 |
| 20260506175401 | 67 | 193 | 2.6 | 3.5 | 0.00 | 0.00 | 0.00 | 66 | 1021.8 |
| 20260506174859 | 67 | 306 | 1.7 | 7.0 | 0.00 | 0.00 | 0.00 | 67 | 1021.8 |
| 20260506174356 | 67 | 204 | 0.9 | 2.6 | 0.00 | 0.00 | 0.00 | 66 | 1021.7 |
| 20260506173853 | 67 | 225 | 4.3 | 7.0 | 0.00 | 0.00 | 0.00 | 67 | 1021.8 |
| 20260506173350 | 67 | 209 | 2.6 | 5.2 | 0.00 | 0.00 | 0.00 | 66 | 1021.7 |
| 20260506172847 | 67 | 217 | 0.9 | 3.5 | 0.00 | 0.00 | 0.00 | 66 | 1021.6 |
| 20260506172344 | 66 | 216 | 1.7 | 6.1 | 0.00 | 0.00 | 0.00 | 68 | 1021.7 |
| 20260506171841 | 66 | 238 | 2.6 | 6.1 | 0.00 | 0.00 | 0.00 | 67 | 1021.9 |
| 20260506171338 | 66 | 216 | 1.7 | 3.5 | 0.00 | 0.00 | 0.00 | 67 | 1021.6 |
| 20260506170836 | 66 | 216 | 1.7 | 2.6 | 0.00 | 0.00 | 0.00 | 64 | 1021.6 |
| 20260506170332 | 65 | 224 | 0.9 | 2.6 | 0.00 | 0.00 | 0.00 | 65 | 1021.6 |
| 20260506165831 | 65 | 217 | 2.6 | 5.2 | 0.00 | 0.00 | 0.00 | 65 | 1021.5 |
| 20260506165329 | 65 | 215 | 2.6 | 3.5 | 0.00 | 0.00 | 0.00 | 65 | 1021.6 |
| 20260506164825 | 66 | 247 | 0.9 | 3.5 | 0.00 | 0.00 | 0.00 | 67 | 1021.7 |
| 20260506164322 | 66 | 241 | 1.7 | 2.6 | 0.00 | 0.00 | 0.00 | 66 | 1021.5 |
| 20260506163819 | 66 | 195 | 1.7 | 3.5 | 0.00 | 0.00 | 0.00 | 66 | 1021.6 |
| 20260506163313 | 65 | 202 | 0.0 | 1.7 | 0.00 | 0.00 | 0.00 | 68 | 1021.6 |
| 20260506162810 | 64 | 211 | 1.7 | 6.1 | 0.00 | 0.00 | 0.00 | 69 | 1021.6 |
| 20260506162308 | 64 | 209 | 0.0 | 1.7 | 0.00 | 0.00 | 0.00 | 67 | 1021.5 |
| 20260506161804 | 63 | 198 | 0.9 | 5.2 | 0.00 | 0.00 | 0.00 | 68 | 1021.7 |
| 20260506161302 | 64 | 195 | 1.7 | 5.2 | 0.00 | 0.00 | 0.00 | 67 | 1021.6 |
| 20260506160800 | 64 | 220 | 1.7 | 2.6 | 0.00 | 0.00 | 0.00 | 67 | 1021.7 |
| 20260506160256 | 63 | 192 | 0.9 | 3.5 | 0.00 | 0.00 | 0.00 | 68 | 1021.5 |
| 20260506155755 | 63 | 212 | 2.6 | 2.6 | 0.00 | 0.00 | 0.00 | 69 | 1021.6 |
| 20260506155251 | 62 | 212 | 0.0 | 2.6 | 0.00 | 0.00 | 0.00 | 69 | 1021.4 |
| 20260506153358 | 62 | 221 | 0.9 | 0.9 | 0.00 | 0.00 | 0.00 | 67 | 1021.5 |
| 20260506152855 | 61 | 218 | 0.9 | 1.7 | 0.00 | 0.00 | 0.00 | 68 | 1021.7 |
| 20260506152352 | 61 | 209 | 0.9 | 2.6 | 0.00 | 0.00 | 0.00 | 70 | 1021.6 |
| 20260506151851 | 61 | 74 | 1.7 | 3.5 | 0.00 | 0.00 | 0.00 | 69 | 1021.6 |
| 20260506151347 | 60 | 185 | 0.9 | 6.1 | 0.00 | 0.00 | 0.00 | 70 | 1021.5 |
| 20260506150845 | 60 | 62 | 4.3 | 6.1 | 0.00 | 0.00 | 0.00 | 69 | 1021.7 |
| 20260506150341 | 60 | 211 | 0.9 | 1.7 | 0.00 | 0.00 | 0.00 | 71 | 1021.7 |
| 20260506145838 | 59 | 204 | 0.9 | 5.2 | 0.00 | 0.00 | 0.00 | 72 | 1021.6 |
| 20260506145334 | 59 | 100 | 1.7 | 3.5 | 0.00 | 0.00 | 0.00 | 71 | 1021.6 |
| 20260506144832 | 59 | 213 | 0.9 | 5.2 | 0.00 | 0.00 | 0.00 | 72 | 1021.4 |
| 20260506144328 | 59 | 116 | 0.9 | 1.7 | 0.00 | 0.00 | 0.00 | 73 | 1021.5 |
| 20260506143827 | 58 | 193 | 2.6 | 3.5 | 0.00 | 0.00 | 0.00 | 73 | 1021.3 |
| 20260506143323 | 58 | 81 | 1.7 | 2.6 | 0.00 | 0.00 | 0.00 | 73 | 1021.1 |
| 20260506142822 | 58 | 35 | 3.5 | 5.2 | 0.00 | 0.00 | 0.00 | 73 | 1021.4 |
| 20260506142319 | 58 | 182 | 0.9 | 1.7 | 0.00 | 0.00 | 0.00 | 74 | 1021.1 |
| 20260506141817 | 57 | 137 | 2.6 | 2.6 | 0.00 | 0.00 | 0.00 | 75 | 1021.1 |
| 20260506141315 | 56 | 114 | 0.9 | 1.7 | 0.00 | 0.00 | 0.00 | 77 | 1021.3 |
| 20260506140813 | 56 | 209 | 0.9 | 0.9 | 0.00 | 0.00 | 0.00 | 78 | 1020.9 |
| 20260506140309 | 55 | 209 | 0.0 | 1.7 | 0.00 | 0.00 | 0.00 | 79 | 1021.0 |
| 20260506135806 | 55 | 179 | 0.0 | 0.9 | 0.00 | 0.00 | 0.00 | 78 | 1021.1 |
| 20260506135305 | 54 | 196 | 0.0 | 1.7 | 0.00 | 0.00 | 0.00 | 81 | 1021.0 |
| 20260506134759 | 54 | 200 | 0.9 | 1.7 | 0.00 | 0.00 | 0.00 | 80 | 1021.0 |
| 20260506134256 | 55 | 214 | 0.9 | 1.7 | 0.00 | 0.00 | 0.00 | 81 | 1021.1 |
| 20260506133753 | 54 | 21 | 2.6 | 2.6 | 0.00 | 0.00 | 0.00 | 82 | 1021.0 |
| 20260506133250 | 54 | 237 | 0.9 | 2.6 | 0.00 | 0.00 | 0.00 | 82 | 1021.0 |
| 20260506132746 | 54 | 344 | 1.7 | 2.6 | 0.00 | 0.00 | 0.00 | 82 | 1021.0 |
| 20260506132244 | 53 | 306 | 1.7 | 3.5 | 0.00 | 0.00 | 0.00 | 83 | 1021.0 |
| 20260506131742 | 53 | 340 | 1.7 | 2.6 | 0.00 | 0.00 | 0.00 | 84 | 1020.9 |
| 20260506131237 | 53 | 229 | 1.7 | 1.7 | 0.00 | 0.00 | 0.00 | 85 | 1020.8 |
| 20260506130734 | 53 | 226 | 0.0 | 0.9 | 0.00 | 0.00 | 0.00 | 85 | 1020.7 |
| 20260506130231 | 53 | 288 | 0.9 | 2.6 | 0.00 | 0.00 | 0.00 | 84 | 1020.7 |
| 20260506125730 | 54 | 229 | 0.9 | 1.7 | 0.00 | 0.00 | 0.00 | 83 | 1020.6 |
| 20260506125227 | 54 | 271 | 1.7 | 2.6 | 0.00 | 0.00 | 0.00 | 82 | 1020.5 |
| 20260506124725 | 54 | 276 | 0.9 | 5.2 | 0.00 | 0.00 | 0.00 | 83 | 1020.6 |
| 20260506124223 | 54 | 304 | 0.9 | 1.7 | 0.00 | 0.00 | 0.00 | 84 | 1020.5 |
| 20260506123720 | 54 | 233 | 0.9 | 2.6 | 0.00 | 0.00 | 0.00 | 83 | 1020.5 |
| 20260506123218 | 55 | 206 | 1.7 | 2.6 | 0.00 | 0.00 | 0.00 | 83 | 1020.6 |
| 20260506122715 | 54 | 274 | 1.7 | 3.5 | 0.00 | 0.00 | 0.00 | 83 | 1020.5 |
| 20260506122212 | 54 | 66 | 0.9 | 2.6 | 0.00 | 0.00 | 0.00 | 83 | 1020.4 |
| 20260506121710 | 54 | 5 | 1.7 | 2.6 | 0.00 | 0.00 | 0.00 | 84 | 1020.3 |
| 20260506121206 | 54 | 4 | 1.7 | 2.6 | 0.00 | 0.00 | 0.00 | 85 | 1020.2 |
| 20260506120704 | 54 | 238 | 1.7 | 2.6 | 0.00 | 0.00 | 0.00 | 85 | 1020.3 |
| 20260506120201 | 54 | 286 | 0.9 | 2.6 | 0.00 | 0.00 | 0.00 | 86 | 1020.3 |
| 20260506115700 | 54 | 359 | 1.7 | 2.6 | 0.00 | 0.00 | 0.00 | 86 | 1020.1 |
| 20260506115158 | 54 | 357 | 1.7 | 2.6 | 0.00 | 0.00 | 0.00 | 86 | 1020.3 |
| 20260506114654 | 54 | 322 | 1.7 | 2.6 | 0.00 | 0.00 | 0.00 | 86 | 1020.2 |
| 20260506114152 | 54 | 101 | 2.6 | 3.5 | 0.00 | 0.00 | 0.00 | 85 | 1020.1 |
| 20260506113651 | 54 | 346 | 1.7 | 3.5 | 0.00 | 0.00 | 0.00 | 85 | 1020.2 |
| 20260506113148 | 54 | 353 | 3.5 | 5.2 | 0.00 | 0.00 | 0.00 | 85 | 1020.1 |
| 20260506112643 | 54 | 261 | 1.7 | 1.7 | 0.00 | 0.00 | 0.00 | 85 | 1020.1 |
| 20260506112142 | 55 | 255 | 1.7 | 2.6 | 0.00 | 0.00 | 0.00 | 84 | 1020.1 |
| 20260506111639 | 55 | 310 | 2.6 | 2.6 | 0.00 | 0.00 | 0.00 | 84 | 1020.2 |
| 20260506111136 | 55 | 240 | 0.9 | 2.6 | 0.00 | 0.00 | 0.00 | 85 | 1020.1 |
| 20260506110634 | 55 | 269 | 1.7 | 1.7 | 0.00 | 0.00 | 0.00 | 85 | 1020.3 |
| 20260506110131 | 55 | 197 | 0.9 | 2.6 | 0.00 | 0.00 | 0.00 | 84 | 1020.2 |
| 20260506105627 | 55 | 309 | 1.7 | 3.5 | 0.00 | 0.00 | 0.00 | 84 | 1020.2 |
| 20260506105124 | 55 | 336 | 2.6 | 2.6 | 0.00 | 0.00 | 0.00 | 84 | 1020.2 |
| 20260506104623 | 55 | 208 | 2.6 | 2.6 | 0.00 | 0.00 | 0.00 | 85 | 1020.0 |
| 20260506104120 | 55 | 330 | 1.7 | 2.6 | 0.00 | 0.00 | 0.00 | 86 | 1020.0 |
| 20260506103617 | 54 | 280 | 1.7 | 2.6 | 0.00 | 0.00 | 0.00 | 86 | 1020.1 |
| 20260506103114 | 54 | 89 | 1.7 | 2.6 | 0.00 | 0.00 | 0.00 | 87 | 1019.9 |
| 20260506102612 | 54 | 326 | 0.9 | 1.7 | 0.00 | 0.00 | 0.00 | 87 | 1020.0 |
| 20260506102109 | 53 | 330 | 2.6 | 2.6 | 0.00 | 0.00 | 0.00 | 88 | 1020.0 |
| 20260506101606 | 53 | 254 | 1.7 | 3.5 | 0.00 | 0.00 | 0.00 | 88 | 1020.1 |
| 20260506101103 | 54 | 0 | 1.7 | 2.6 | 0.00 | 0.00 | 0.00 | 87 | 1020.1 |
| 20260506100601 | 54 | 246 | 1.7 | 1.7 | 0.00 | 0.00 | 0.00 | 86 | 1020.1 |
| 20260506100059 | 54 | 172 | 0.0 | 0.9 | 0.00 | 0.00 | 0.00 | 86 | 1020.1 |
| 20260506095557 | 55 | 245 | 1.7 | 2.6 | 0.00 | 0.00 | 0.00 | 86 | 1020.1 |
| 20260506095053 | 55 | 15 | 1.7 | 5.2 | 0.00 | 0.00 | 0.00 | 85 | 1020.1 |
| 20260506094551 | 55 | 330 | 3.5 | 6.1 | 0.00 | 0.00 | 0.00 | 85 | 1020.0 |
| 20260506094049 | 55 | 338 | 2.6 | 2.6 | 0.00 | 0.00 | 0.00 | 86 | 1020.1 |
| 20260506093547 | 55 | 345 | 1.7 | 3.5 | 0.00 | 0.00 | 0.00 | 86 | 1020.2 |
| 20260506093044 | 55 | 156 | 1.7 | 2.6 | 0.00 | 0.00 | 0.00 | 86 | 1020.3 |
| 20260506092542 | 55 | 262 | 1.7 | 2.6 | 0.00 | 0.00 | 0.00 | 86 | 1020.2 |
| 20260506092038 | 55 | 340 | 1.7 | 3.5 | 0.00 | 0.00 | 0.00 | 86 | 1020.2 |
| 20260506091537 | 55 | 111 | 1.7 | 3.5 | 0.00 | 0.00 | 0.00 | 86 | 1020.3 |
| 20260506091034 | 55 | 334 | 1.7 | 3.5 | 0.00 | 0.00 | 0.00 | 86 | 1020.3 |
| 20260506090532 | 55 | 25 | 1.7 | 3.5 | 0.00 | 0.00 | 0.00 | 86 | 1020.6 |
| 20260506090027 | 55 | 220 | 0.9 | 2.6 | 0.00 | 0.00 | 0.00 | 86 | 1020.5 |
| 20260506085524 | 55 | 332 | 2.6 | 3.5 | 0.00 | 0.00 | 0.00 | 86 | 1020.4 |
| 20260506085021 | 55 | 50 | 2.6 | 3.5 | 0.00 | 0.00 | 0.00 | 87 | 1020.5 |
| 20260506084518 | 55 | 267 | 1.7 | 3.5 | 0.00 | 0.00 | 0.00 | 88 | 1020.3 |
| 20260506084014 | 55 | 307 | 2.6 | 3.5 | 0.00 | 0.00 | 0.00 | 88 | 1020.6 |
| 20260506083512 | 54 | 211 | 0.0 | 0.9 | 0.00 | 0.00 | 0.00 | 88 | 1020.5 |
| 20260506083009 | 54 | 221 | 1.7 | 2.6 | 0.00 | 0.00 | 0.00 | 88 | 1020.4 |
| 20260506082506 | 54 | 190 | 0.9 | 1.7 | 0.00 | 0.00 | 0.00 | 88 | 1020.4 |
| 20260506082001 | 55 | 192 | 0.9 | 1.7 | 0.00 | 0.00 | 0.00 | 88 | 1020.5 |
| 20260506081500 | 55 | 147 | 1.7 | 3.5 | 0.00 | 0.00 | 0.00 | 88 | 1020.5 |
| 20260506080957 | 55 | 310 | 2.6 | 2.6 | 0.00 | 0.00 | 0.00 | 88 | 1020.4 |
| 20260506080454 | 55 | 213 | 0.9 | 2.6 | 0.00 | 0.00 | 0.00 | 89 | 1020.5 |
| 20260506073437 | 55 | 335 | 2.6 | 5.2 | 0.00 | 0.00 | 0.00 | 89 | 1020.5 |
| 20260506072935 | 55 | 149 | 1.7 | 3.5 | 0.00 | 0.00 | 0.00 | 89 | 1020.5 |
| 20260506072432 | 55 | 177 | 0.9 | 5.2 | 0.00 | 0.00 | 0.00 | 89 | 1020.3 |
| 20260506071930 | 55 | 211 | 0.0 | 1.7 | 0.00 | 0.00 | 0.00 | 89 | 1020.3 |
| 20260506071427 | 55 | 166 | 1.7 | 3.5 | 0.00 | 0.00 | 0.00 | 89 | 1020.3 |
| 20260506070924 | 54 | 213 | 0.9 | 3.5 | 0.00 | 0.00 | 0.00 | 89 | 1020.2 |
| 20260506070421 | 54 | 219 | 0.9 | 2.6 | 0.00 | 0.00 | 0.00 | 89 | 1020.1 |
| 20260506062358 | 55 | 299 | 0.9 | 1.7 | 0.00 | 0.00 | 0.00 | 89 | 1019.8 |
| 20260506061854 | 55 | 156 | 0.9 | 0.9 | 0.00 | 0.00 | 0.00 | 89 | 1019.7 |
| 20260506061351 | 55 | 292 | 0.9 | 2.6 | 0.00 | 0.00 | 0.00 | 89 | 1019.6 |
| 20260506060849 | 55 | 192 | 0.9 | 1.7 | 0.00 | 0.00 | 0.00 | 89 | 1019.7 |
| 20260506060347 | 54 | 336 | 0.9 | 1.7 | 0.00 | 0.00 | 0.00 | 89 | 1019.6 |